Погода в Черкасской

Россия / Орловская область     52°41′34″N   35°47′34″E
темп.,
°C
ветер,
м/с
пор.,
м/с
влажн.,
%
обл.,
%
осадки,
мм/ч
давл.,
гПа
погр.,
м
21 июня, пн
пн2100:00+18в368481 0.0 1020101
03:00+17вюв3790100 0.0 1020121
06:00+18в398765 0.0 1019182
09:00+23вюв59715 0.0 1019423
12:00+26вюв566358 0.0 1019705
15:00+27вюв576084 0.0 1018872
18:00+26вюв58725 0.0 1018543
21:00+21вюв368937 0.0 101986
22 июня, вт
вт2200:00+18юв37915 0.0 1019120
03:00+17вюв37925 0.0 1019114
06:00+18вюв39895 0.0 1020206
09:00+24вюв59700 0.0 1020414
12:00+27вюв68610 0.0 1019803
15:00+29вюв57612 0.0 10191073
18:00+27вюв4872100 0.0 1019566
21:00+23в368854 0.0 1019105
23 июня, ср
ср2300:00+20вюв36925 0.0 102090
03:00+19вюв369233 0.0 102091
06:00+20в378876 0.0 1020164
09:00+25в47723 0.0 1020422
12:00+28в56575 0.0 1020840
15:00+30в56565 0.0 10201206
18:00+28в466896 0.0 1019388
21:00+23в348358 0.0 102052
24 июня, чт
чт2400:00+21вюв358891 0.1 102076
03:00+20в339333 0.2 102047
06:00+21в249067 0.0 1020109
09:00+26вюв347498 0.0 1020327
12:00+29юв2358100 0.0 10201031
15:00+30юв335375 0.0 10191256
18:00+29вюв356643 0.0 1019282
21:00+24юв338232 0.0 101944
25 июня, пт
пт2500:00+22ююв22886 0.0 101913
03:00+21св229191 1.4 101917
06:00+22вюв239097 0.0 101868
09:00+26юв347496 0.0 1018331
12:00+29юв345997 0.0 1018817
15:00+30вюв2253100 0.0 10171284
18:00+29вюв35651 0.0 1015280
21:00+21с71188100 2.1 1017281